When you browse on this site, cookies collect data to enhance your experience and personalize the content and advertising you see.
Visit our Privacy Policy to learn more. By continuing to use the site, you agree to this use of cookies and data.
  • In Lithuania
  • List of Countries
  • For 7 days
  • Water Temperature
  • Satellite Maps
  • Weather Map
  • Weather Widgets
  • user-avatar
    Login

    Hourly Weather Barra

    Today, 26 March, Tuesday

    Time Temperature Precipitation Wind Pressure Humidity
    00:00 +26°C° 0.7 mm 1 mps 748 mmHg 96%
    01:00 +26°C° 0.7 mm 1 mps 748 mmHg 96%
    02:00 +26°C° 0.4 mm 1 mps 748 mmHg 96%
    03:00 +26°C° 0.4 mm 1 mps 748 mmHg 96%
    04:00 +26°C° 0 mm 1 mps 748 mmHg 96%
    05:00 +26°C° 0.3 mm 1 mps 748 mmHg 96%
    06:00 +26°C° 0.3 mm 1 mps 748 mmHg 95%
    07:00 +24°C° 0.3 mm 0 mps 748 mmHg 95%
    08:00 +28°C° 0.3 mm 1 mps 748 mmHg 89%
    09:00 +29°C° 0.3 mm 1 mps 748 mmHg 82%
    10:00 +30°C° 0 mm 1 mps 749 mmHg 76%
    11:00 +31°C° 0.3 mm 1 mps 748 mmHg 73%
    12:00 +32°C° 0.3 mm 2 mps 748 mmHg 69%
    13:00 +32°C° 0.3 mm 2 mps 747 mmHg 66%
    14:00 +32°C° 0 mm 2 mps 747 mmHg 67%
    15:00 +31°C° 0 mm 2 mps 746 mmHg 68%
    16:00 +31°C° 0 mm 3 mps 746 mmHg 69%
    17:00 +30°C° 0 mm 2 mps 746 mmHg 76%
    18:00 +28°C° 0 mm 2 mps 746 mmHg 83%
    19:00 +27°C° 0 mm 1 mps 747 mmHg 90%
    20:00 +27°C° 0.2 mm 1 mps 747 mmHg 92%
    21:00 +26°C° 0.2 mm 1 mps 748 mmHg 93%
    22:00 +26°C° 0.2 mm 1 mps 748 mmHg 95%
    23:00 +26°C° 0.2 mm 1 mps 748 mmHg 95%

    Tomorrow, 27 March, Wednesday

    Time Temperature Precipitation Wind Pressure Humidity
    00:00 +26°C° 0.2 mm 1 mps 748 mmHg 96%
    01:00 +26°C° 0.2 mm 1 mps 747 mmHg 96%
    02:00 +26°C° 0.6 mm 1 mps 747 mmHg 96%
    03:00 +26°C° 0.6 mm 1 mps 747 mmHg 96%
    04:00 +26°C° 0.6 mm 1 mps 747 mmHg 96%
    05:00 +26°C° 0.8 mm 1 mps 747 mmHg 96%
    06:00 +26°C° 0.8 mm 1 mps 747 mmHg 96%
    07:00 +26°C° 0.8 mm 1 mps 747 mmHg 96%
    08:00 +28°C° 0.1 mm 1 mps 747 mmHg 86%
    09:00 +30°C° 0.1 mm 1 mps 747 mmHg 77%
    10:00 +32°C° 0.1 mm 1 mps 748 mmHg 68%
    11:00 +32°C° 0 mm 1 mps 747 mmHg 65%
    12:00 +34°C° 0 mm 2 mps 746 mmHg 62%
    13:00 +34°C° 0 mm 3 mps 746 mmHg 60%
    14:00 +33°C° 0 mm 3 mps 745 mmHg 63%
    15:00 +33°C° 0 mm 3 mps 745 mmHg 65%
    16:00 +31°C° 0 mm 3 mps 745 mmHg 68%
    17:00 +30°C° 0.1 mm 3 mps 745 mmHg 75%
    18:00 +29°C° 0.1 mm 2 mps 745 mmHg 82%
    19:00 +27°C° 0.1 mm 2 mps 746 mmHg 89%
    20:00 +27°C° 0.1 mm 2 mps 746 mmHg 91%
    21:00 +27°C° 0.1 mm 2 mps 746 mmHg 92%
    22:00 +26°C° 0.1 mm 1 mps 747 mmHg 94%
    23:00 +26°C° 0.7 mm 2 mps 746 mmHg 95%

    Day after tomorrow, 28 March, Thursday

    Time Temperature Precipitation Wind Pressure Humidity
    00:00 +26°C° 0.7 mm 2 mps 746 mmHg 95%
    01:00 +26°C° 0.7 mm 2 mps 745 mmHg 95%
    02:00 +26°C° 0.2 mm 1 mps 745 mmHg 96%
    03:00 +26°C° 0.2 mm 1 mps 745 mmHg 96%
    04:00 +25°C° 0.2 mm 1 mps 744 mmHg 96%
    05:00 +26°C° 0.6 mm 1 mps 745 mmHg 96%
    06:00 +26°C° 0.6 mm 1 mps 745 mmHg 95%
    07:00 +24°C° 0.6 mm 0 mps 745 mmHg 95%
    08:00 +28°C° 0.9 mm 1 mps 746 mmHg 86%
    09:00 +30°C° 0.9 mm 1 mps 746 mmHg 78%
    10:00 +32°C° 0.9 mm 1 mps 746 mmHg 69%
    11:00 +32°C° 0.2 mm 2 mps 746 mmHg 67%
    12:00 +33°C° 0.2 mm 3 mps 745 mmHg 64%
    13:00 +34°C° 0.2 mm 3 mps 744 mmHg 62%
    14:00 +33°C° 0 mm 3 mps 744 mmHg 65%
    15:00 +33°C° 0 mm 4 mps 743 mmHg 67%
    16:00 +32°C° 0 mm 4 mps 743 mmHg 70%
    17:00 +30°C° 0.1 mm 3 mps 743 mmHg 77%
    18:00 +29°C° 0.1 mm 3 mps 744 mmHg 84%
    19:00 +27°C° 0.1 mm 2 mps 744 mmHg 91%
    20:00 +27°C° 0.8 mm 2 mps 744 mmHg 92%
    21:00 +27°C° 0.8 mm 2 mps 745 mmHg 93%
    22:00 +27°C° 0.8 mm 2 mps 745 mmHg 95%
    23:00 +27°C° 1.1 mm 2 mps 745 mmHg 95%

    29 March, Friday

    Time Temperature Precipitation Wind Pressure Humidity
    00:00 +27°C° 1.1 mm 2 mps 745 mmHg 95%
    01:00 +26°C° 1.1 mm 1 mps 744 mmHg 95%
    02:00 +26°C° 0.6 mm 1 mps 744 mmHg 95%
    03:00 +26°C° 0.6 mm 1 mps 744 mmHg 96%
    04:00 +26°C° 0.6 mm 1 mps 744 mmHg 96%
    05:00 +26°C° 1 mm 1 mps 744 mmHg 96%
    06:00 +26°C° 1 mm 1 mps 745 mmHg 96%
    07:00 +26°C° 1 mm 1 mps 745 mmHg 97%
    08:00 +27°C° 0.6 mm 1 mps 745 mmHg 92%
    09:00 +28°C° 0.6 mm 1 mps 745 mmHg 87%
    10:00 +29°C° 0.6 mm 1 mps 746 mmHg 82%
    11:00 +30°C° 0.7 mm 2 mps 745 mmHg 81%
    12:00 +30°C° 0.7 mm 2 mps 745 mmHg 80%
    13:00 +31°C° 0.7 mm 3 mps 744 mmHg 79%
    14:00 +30°C° 0.4 mm 3 mps 744 mmHg 79%
    15:00 +30°C° 0.4 mm 3 mps 743 mmHg 79%
    16:00 +30°C° 0.4 mm 3 mps 743 mmHg 80%
    17:00 +29°C° 0.1 mm 3 mps 743 mmHg 84%
    18:00 +28°C° 0.1 mm 2 mps 744 mmHg 88%
    19:00 +27°C° 0.1 mm 2 mps 744 mmHg 92%
    20:00 +27°C° 0.3 mm 2 mps 745 mmHg 93%
    21:00 +27°C° 0.3 mm 2 mps 745 mmHg 94%
    22:00 +26°C° 0.3 mm 2 mps 746 mmHg 96%
    23:00 +26°C° 0.7 mm 2 mps 746 mmHg 96%

    30 March, Saturday

    Time Temperature Precipitation Wind Pressure Humidity
    00:00 +26°C° 0.7 mm 2 mps 745 mmHg 97%
    01:00 +26°C° 0.7 mm 1 mps 745 mmHg 98%
    02:00 +26°C° 0.5 mm 1 mps 745 mmHg 98%
    03:00 +26°C° 0.5 mm 1 mps 744 mmHg 98%
    04:00 +26°C° 0.5 mm 1 mps 744 mmHg 98%
    05:00 +26°C° 0.2 mm 1 mps 745 mmHg 97%
    06:00 +26°C° 0.2 mm 1 mps 745 mmHg 97%
    07:00 +24°C° 0.2 mm 0 mps 745 mmHg 97%
    08:00 +25°C° 0 mm 0 mps 746 mmHg 89%
    09:00 +27°C° 0 mm 0 mps 746 mmHg 82%
    10:00 +29°C° 0 mm 0 mps 746 mmHg 75%
    11:00 +32°C° 0 mm 1 mps 745 mmHg 71%
    12:00 +33°C° 0 mm 1 mps 745 mmHg 66%
    13:00 +34°C° 0 mm 1 mps 744 mmHg 62%
    14:00 +32°C° 1.4 mm 1 mps 744 mmHg 72%
    15:00 +30°C° 1.4 mm 1 mps 744 mmHg 82%
    16:00 +28°C° 1.4 mm 1 mps 743 mmHg 92%
    17:00 +28°C° 1 mm 1 mps 744 mmHg 93%
    18:00 +27°C° 1 mm 1 mps 745 mmHg 95%
    19:00 +27°C° 1 mm 1 mps 745 mmHg 96%
    20:00 +26°C° 0.6 mm 1 mps 746 mmHg 96%
    21:00 +26°C° 0.6 mm 1 mps 746 mmHg 96%
    22:00 +26°C° 0.6 mm 1 mps 746 mmHg 96%
    23:00 +26°C° 1 mm 1 mps 746 mmHg 96%

    31 March, Sunday

    Time Temperature Precipitation Wind Pressure Humidity
    00:00 +26°C° 1 mm 1 mps 746 mmHg 96%
    01:00 +25°C° 1 mm 1 mps 746 mmHg 96%
    02:00 +25°C° 0.7 mm 1 mps 745 mmHg 96%
    03:00 +25°C° 0.7 mm 1 mps 745 mmHg 95%
    04:00 +25°C° 0.7 mm 1 mps 745 mmHg 95%
    05:00 +25°C° 0.1 mm 2 mps 746 mmHg 95%
    06:00 +25°C° 0.1 mm 2 mps 746 mmHg 94%
    07:00 +25°C° 0.1 mm 2 mps 747 mmHg 93%
    08:00 +26°C° 0 mm 3 mps 747 mmHg 83%
    09:00 +27°C° 0 mm 3 mps 748 mmHg 74%
    10:00 +28°C° 0 mm 3 mps 748 mmHg 64%
    11:00 +29°C° 0 mm 3 mps 747 mmHg 60%
    12:00 +30°C° 0 mm 3 mps 747 mmHg 57%
    13:00 +32°C° 0 mm 4 mps 747 mmHg 53%
    14:00 +32°C° 0 mm 4 mps 746 mmHg 55%
    15:00 +32°C° 0 mm 4 mps 746 mmHg 56%
    16:00 +30°C° 0 mm 5 mps 746 mmHg 57%
    17:00 +29°C° 0 mm 4 mps 746 mmHg 63%
    18:00 +28°C° 0 mm 4 mps 747 mmHg 68%
    19:00 +26°C° 0 mm 3 mps 747 mmHg 74%
    20:00 +26°C° 0 mm 3 mps 748 mmHg 73%
    21:00 +26°C° 0 mm 3 mps 748 mmHg 73%
    22:00 +25°C° 0 mm 3 mps 748 mmHg 73%
    23:00 +25°C° 0 mm 3 mps 748 mmHg 69%
    Show more